| time (UTC) | temp C | wind direction | speed KPH | gust KPH | rain 1hr cm | rain 24hr cm | rain mn cm | humidity % | barometer mb |
| 20260508214021 | 25 | 325 | 14.5 | 24.1 | 0.00 | 0.00 | 0.00 | 45 | 1004.8 |
| 20260508213522 | 25 | 311 | 14.5 | 20.9 | 0.00 | 0.00 | 0.00 | 45 | 1004.8 |
| 20260508213039 | 24 | 331 | 9.7 | 20.9 | 0.00 | 0.00 | 0.00 | 47 | 1004.6 |
| 20260508212522 | 24 | 313 | 3.2 | 17.7 | 0.00 | 0.00 | 0.00 | 48 | 1004.6 |
| 20260508212023 | 23 | 325 | 6.4 | 19.3 | 0.00 | 0.00 | 0.00 | 49 | 1004.6 |
| 20260508211540 | 23 | 313 | 8.0 | 19.3 | 0.00 | 0.00 | 0.00 | 50 | 1004.7 |
| 20260508211022 | 23 | 294 | 9.7 | 20.9 | 0.00 | 0.00 | 0.00 | 50 | 1004.6 |
| 20260508210522 | 23 | 360 | 11.3 | 20.9 | 0.00 | 0.00 | 0.00 | 49 | 1004.7 |
| 20260508210040 | 22 | 306 | 11.3 | 20.9 | 0.00 | 0.00 | 0.00 | 49 | 1004.7 |
| 20260508205521 | 22 | 279 | 9.7 | 20.9 | 0.00 | 0.00 | 0.00 | 50 | 1004.9 |
| 20260508205021 | 22 | 232 | 8.0 | 17.7 | 0.00 | 0.00 | 0.00 | 50 | 1005.3 |
| 20260508204539 | 22 | 256 | 11.3 | 22.5 | 0.00 | 0.00 | 0.00 | 52 | 1005.4 |
| 20260508204021 | 22 | 238 | 6.4 | 25.7 | 0.00 | 0.00 | 0.00 | 51 | 1005.1 |
| 20260508203522 | 22 | 257 | 16.1 | 25.7 | 0.00 | 0.00 | 0.00 | 51 | 1004.9 |
| 20260508203040 | 22 | 277 | 11.3 | 25.7 | 0.00 | 0.00 | 0.00 | 53 | 1005.0 |
| 20260508202523 | 22 | 282 | 12.9 | 20.9 | 0.00 | 0.00 | 0.00 | 52 | 1005.1 |
| 20260508202022 | 22 | 299 | 9.7 | 20.9 | 0.00 | 0.00 | 0.00 | 53 | 1004.9 |
| 20260508201540 | 22 | 280 | 11.3 | 19.3 | 0.00 | 0.00 | 0.00 | 53 | 1005.0 |
| 20260508201022 | 22 | 287 | 8.0 | 19.3 | 0.00 | 0.00 | 0.00 | 52 | 1005.2 |
| 20260508200522 | 22 | 274 | 11.3 | 20.9 | 0.00 | 0.00 | 0.00 | 51 | 1005.5 |
| 20260508200039 | 22 | 286 | 11.3 | 24.1 | 0.00 | 0.00 | 0.00 | 51 | 1005.4 |
| 20260508195521 | 22 | 301 | 12.9 | 24.1 | 0.00 | 0.00 | 0.00 | 50 | 1005.3 |
| 20260508195022 | 23 | 308 | 11.3 | 22.5 | 0.00 | 0.00 | 0.00 | 51 | 1005.3 |
| 20260508194546 | 23 | 336 | 12.9 | 22.5 | 0.00 | 0.00 | 0.00 | 51 | 1005.6 |
| 20260508194022 | 23 | 250 | 14.5 | 22.5 | 0.00 | 0.00 | 0.00 | 50 | 1005.5 |
| 20260508193521 | 23 | 286 | 8.0 | 22.5 | 0.00 | 0.00 | 0.00 | 50 | 1005.5 |
| 20260508193039 | 23 | 238 | 9.7 | 17.7 | 0.00 | 0.00 | 0.00 | 51 | 1005.6 |
| 20260508192522 | 23 | 244 | 6.4 | 17.7 | 0.00 | 0.00 | 0.00 | 51 | 1005.2 |
| 20260508192022 | 23 | 229 | 8.0 | 17.7 | 0.00 | 0.00 | 0.00 | 50 | 1005.3 |
| 20260508191545 | 23 | 257 | 8.0 | 16.1 | 0.00 | 0.00 | 0.00 | 48 | 1005.4 |
| 20260508191022 | 23 | 261 | 6.4 | 16.1 | 0.00 | 0.00 | 0.00 | 48 | 1005.3 |
| 20260508190522 | 23 | 257 | 6.4 | 27.4 | 0.00 | 0.00 | 0.00 | 49 | 1005.1 |
| 20260508190100 | 23 | 206 | 8.0 | 27.4 | 0.00 | 0.00 | 0.00 | 48 | 1005.1 |
| 20260508185522 | 24 | 237 | 12.9 | 27.4 | 0.00 | 0.00 | 0.00 | 45 | 1005.6 |
| 20260508185025 | 24 | 287 | 12.9 | 22.5 | 0.00 | 0.00 | 0.00 | 44 | 1005.5 |
| 20260508184541 | 25 | 238 | 12.9 | 25.7 | 0.00 | 0.00 | 0.00 | 44 | 1005.4 |
| 20260508184022 | 25 | 232 | 14.5 | 29.0 | 0.00 | 0.00 | 0.00 | 43 | 1005.9 |
| 20260508183521 | 25 | 257 | 17.7 | 30.6 | 0.00 | 0.00 | 0.00 | 42 | 1005.7 |
| 20260508183042 | 26 | 225 | 16.1 | 30.6 | 0.00 | 0.00 | 0.00 | 43 | 1005.8 |
| 20260508182521 | 26 | 249 | 12.9 | 32.2 | 0.00 | 0.00 | 0.00 | 43 | 1006.1 |
| 20260508182021 | 25 | 295 | 12.9 | 32.2 | 0.00 | 0.00 | 0.00 | 45 | 1006.1 |
| 20260508181544 | 25 | 242 | 19.3 | 32.2 | 0.00 | 0.00 | 0.00 | 44 | 1006.4 |
| 20260508181021 | 24 | 239 | 17.7 | 30.6 | 0.00 | 0.00 | 0.00 | 49 | 1006.4 |
| 20260508180524 | 23 | 272 | 17.7 | 30.6 | 0.00 | 0.00 | 0.00 | 48 | 1006.4 |
| 20260508180038 | 23 | 249 | 16.1 | 30.6 | 0.00 | 0.00 | 0.00 | 47 | 1006.5 |
| 20260508175522 | 23 | 269 | 17.7 | 33.8 | 0.00 | 0.00 | 0.00 | 46 | 1006.5 |
| 20260508175024 | 24 | 243 | 16.1 | 33.8 | 0.00 | 0.00 | 0.00 | 47 | 1006.7 |
| 20260508174541 | 24 | 269 | 17.7 | 40.2 | 0.00 | 0.00 | 0.00 | 47 | 1006.5 |
| 20260508174022 | 23 | 231 | 22.5 | 40.2 | 0.00 | 0.00 | 0.00 | 47 | 1006.6 |
| 20260508173521 | 23 | 246 | 16.1 | 30.6 | 0.00 | 0.00 | 0.00 | 48 | 1006.5 |
| 20260508173038 | 23 | 239 | 12.9 | 30.6 | 0.00 | 0.00 | 0.00 | 48 | 1006.5 |
| 20260508172525 | 23 | 231 | 14.5 | 29.0 | 0.00 | 0.00 | 0.00 | 48 | 1006.4 |
| 20260508172022 | 23 | 244 | 11.3 | 32.2 | 0.00 | 0.00 | 0.00 | 48 | 1006.5 |
| 20260508171544 | 24 | 254 | 12.9 | 32.2 | 0.00 | 0.00 | 0.00 | 47 | 1006.5 |
| 20260508171021 | 24 | 259 | 19.3 | 30.6 | 0.00 | 0.00 | 0.00 | 48 | 1006.5 |
| 20260508170521 | 24 | 223 | 17.7 | 30.6 | 0.00 | 0.00 | 0.00 | 47 | 1006.5 |
| 20260508170037 | 23 | 254 | 12.9 | 30.6 | 0.00 | 0.00 | 0.00 | 49 | 1006.5 |
| 20260508165521 | 23 | 221 | 16.1 | 30.6 | 0.00 | 0.00 | 0.00 | 50 | 1006.6 |
| 20260508165021 | 23 | 196 | 12.9 | 29.0 | 0.00 | 0.00 | 0.00 | 51 | 1006.6 |
| 20260508164537 | 22 | 220 | 11.3 | 22.5 | 0.00 | 0.00 | 0.00 | 50 | 1006.6 |
| 20260508164022 | 22 | 224 | 11.3 | 25.7 | 0.00 | 0.00 | 0.00 | 52 | 1006.8 |
| 20260508163522 | 22 | 247 | 16.1 | 32.2 | 0.00 | 0.00 | 0.00 | 51 | 1006.7 |
| 20260508163050 | 23 | 191 | 14.5 | 32.2 | 0.00 | 0.00 | 0.00 | 50 | 1006.9 |
| 20260508162525 | 23 | 204 | 14.5 | 32.2 | 0.00 | 0.00 | 0.00 | 50 | 1007.0 |
| 20260508162021 | 23 | 188 | 14.5 | 25.7 | 0.00 | 0.00 | 0.00 | 49 | 1007.0 |
| 20260508161552 | 23 | 187 | 11.3 | 25.7 | 0.00 | 0.00 | 0.00 | 51 | 1006.9 |
| 20260508161022 | 22 | 231 | 12.9 | 25.7 | 0.00 | 0.00 | 0.00 | 52 | 1006.9 |
| 20260508160525 | 22 | 225 | 16.1 | 27.4 | 0.00 | 0.00 | 0.00 | 52 | 1006.9 |
| 20260508160039 | 22 | 248 | 14.5 | 27.4 | 0.00 | 0.00 | 0.00 | 53 | 1007.1 |
| 20260508155522 | 22 | 178 | 9.7 | 25.7 | 0.00 | 0.00 | 0.00 | 54 | 1007.2 |
| 20260508155023 | 22 | 240 | 14.5 | 30.6 | 0.00 | 0.00 | 0.00 | 54 | 1007.2 |
| 20260508154538 | 22 | 237 | 12.9 | 30.6 | 0.00 | 0.00 | 0.00 | 55 | 1007.3 |
| 20260508154024 | 22 | 225 | 12.9 | 30.6 | 0.00 | 0.00 | 0.00 | 55 | 1007.4 |
| 20260508153522 | 21 | 223 | 12.9 | 29.0 | 0.00 | 0.00 | 0.00 | 55 | 1007.4 |
| 20260508153052 | 22 | 234 | 17.7 | 29.0 | 0.00 | 0.00 | 0.00 | 54 | 1007.4 |
| 20260508152521 | 22 | 209 | 12.9 | 29.0 | 0.00 | 0.00 | 0.00 | 56 | 1007.3 |
| 20260508152022 | 21 | 240 | 14.5 | 25.7 | 0.00 | 0.00 | 0.00 | 57 | 1007.3 |
| 20260508151538 | 21 | 234 | 12.9 | 25.7 | 0.00 | 0.00 | 0.00 | 59 | 1007.5 |
| 20260508151025 | 20 | 180 | 11.3 | 32.2 | 0.00 | 0.00 | 0.00 | 59 | 1007.6 |
| 20260508150522 | 20 | 232 | 16.1 | 32.2 | 0.00 | 0.00 | 0.00 | 58 | 1007.7 |
| 20260508150037 | 20 | 273 | 9.7 | 32.2 | 0.00 | 0.00 | 0.00 | 58 | 1007.7 |
| 20260508145521 | 20 | 242 | 17.7 | 32.2 | 0.00 | 0.00 | 0.00 | 58 | 1007.8 |
| 20260508145023 | 20 | 202 | 12.9 | 35.4 | 0.00 | 0.00 | 0.00 | 58 | 1007.8 |
| 20260508144537 | 20 | 267 | 17.7 | 35.4 | 0.00 | 0.00 | 0.00 | 58 | 1007.8 |
| 20260508144023 | 20 | 215 | 14.5 | 30.6 | 0.00 | 0.00 | 0.00 | 59 | 1007.8 |
| 20260508143524 | 20 | 263 | 11.3 | 35.4 | 0.00 | 0.00 | 0.00 | 60 | 1008.0 |
| 20260508143057 | 20 | 224 | 17.7 | 35.4 | 0.00 | 0.00 | 0.00 | 61 | 1008.1 |
| 20260508142522 | 19 | 204 | 16.1 | 30.6 | 0.00 | 0.00 | 0.00 | 61 | 1008.1 |
| 20260508142023 | 19 | 237 | 12.9 | 33.8 | 0.00 | 0.00 | 0.00 | 62 | 1008.0 |
| 20260508141540 | 19 | 224 | 14.5 | 37.0 | 0.00 | 0.00 | 0.00 | 63 | 1008.0 |
| 20260508141022 | 18 | 273 | 17.7 | 37.0 | 0.00 | 0.00 | 0.00 | 64 | 1008.0 |
| 20260508140522 | 18 | 225 | 12.9 | 35.4 | 0.00 | 0.00 | 0.00 | 66 | 1008.0 |
| 20260508140039 | 17 | 220 | 14.5 | 25.7 | 0.00 | 0.00 | 0.00 | 67 | 1008.2 |
| 20260508135523 | 17 | 257 | 11.3 | 24.1 | 0.00 | 0.00 | 0.00 | 67 | 1008.3 |
| 20260508135022 | 17 | 189 | 12.9 | 25.7 | 0.00 | 0.00 | 0.00 | 68 | 1008.1 |
| 20260508134539 | 17 | 245 | 9.7 | 25.7 | 0.00 | 0.00 | 0.00 | 69 | 1008.0 |
| 20260508134023 | 16 | 213 | 8.0 | 27.4 | 0.00 | 0.00 | 0.00 | 72 | 1008.0 |
| 20260508133522 | 16 | 207 | 14.5 | 27.4 | 0.00 | 0.00 | 0.00 | 72 | 1008.0 |
| 20260508133037 | 15 | 219 | 11.3 | 27.4 | 0.00 | 0.00 | 0.00 | 73 | 1008.0 |
| 20260508132522 | 15 | 200 | 12.9 | 27.4 | 0.00 | 0.00 | 0.00 | 75 | 1008.0 |
| 20260508132022 | 14 | 209 | 11.3 | 19.3 | 0.00 | 0.00 | 0.00 | 77 | 1007.9 |
| 20260508131537 | 13 | 204 | 9.7 | 20.9 | 0.00 | 0.00 | 0.00 | 79 | 1008.0 |
| 20260508131026 | 13 | 208 | 8.0 | 20.9 | 0.00 | 0.00 | 0.00 | 80 | 1008.1 |
| 20260508130522 | 12 | 221 | 8.0 | 16.1 | 0.00 | 0.00 | 0.00 | 80 | 1008.0 |
| 20260508130042 | 12 | 194 | 9.7 | 17.7 | 0.00 | 0.00 | 0.00 | 80 | 1007.8 |
| 20260508125522 | 12 | 188 | 8.0 | 17.7 | 0.00 | 0.00 | 0.00 | 81 | 1007.9 |
| 20260508125022 | 11 | 184 | 9.7 | 16.1 | 0.00 | 0.00 | 0.00 | 82 | 1007.9 |
| 20260508124537 | 11 | 180 | 8.0 | 16.1 | 0.00 | 0.00 | 0.00 | 83 | 1007.9 |
| 20260508124021 | 11 | 169 | 8.0 | 14.5 | 0.00 | 0.00 | 0.00 | 83 | 1008.0 |
| 20260508123521 | 11 | 174 | 8.0 | 12.9 | 0.00 | 0.00 | 0.00 | 83 | 1008.0 |
| 20260508123042 | 10 | 210 | 4.8 | 11.3 | 0.00 | 0.00 | 0.00 | 83 | 1008.0 |
| 20260508122547 | 10 | 186 | 6.4 | 12.9 | 0.00 | 0.00 | 0.00 | 83 | 1007.9 |
| 20260508122022 | 10 | 165 | 8.0 | 12.9 | 0.00 | 0.00 | 0.00 | 83 | 1007.8 |
| 20260508121537 | 10 | 173 | 6.4 | 11.3 | 0.00 | 0.00 | 0.00 | 83 | 1007.8 |
| 20260508121022 | 10 | 162 | 6.4 | 9.7 | 0.00 | 0.00 | 0.00 | 83 | 1007.8 |
| 20260508120524 | 10 | 191 | 6.4 | 11.3 | 0.00 | 0.00 | 0.00 | 82 | 1007.8 |
| 20260508120037 | 10 | 186 | 6.4 | 12.9 | 0.00 | 0.00 | 0.00 | 82 | 1007.8 |
| 20260508115522 | 10 | 180 | 8.0 | 12.9 | 0.00 | 0.00 | 0.00 | 82 | 1007.9 |
| 20260508115022 | 10 | 209 | 6.4 | 12.9 | 0.00 | 0.00 | 0.00 | 81 | 1007.9 |
| 20260508114537 | 10 | 178 | 6.4 | 16.1 | 0.00 | 0.00 | 0.00 | 81 | 1007.9 |
| 20260508114022 | 10 | 180 | 8.0 | 16.1 | 0.00 | 0.00 | 0.00 | 80 | 1007.9 |
| 20260508113522 | 10 | 181 | 8.0 | 12.9 | 0.00 | 0.00 | 0.00 | 79 | 1007.9 |
| 20260508113038 | 10 | 165 | 8.0 | 12.9 | 0.00 | 0.00 | 0.00 | 79 | 1007.8 |
| 20260508112524 | 10 | 190 | 8.0 | 12.9 | 0.00 | 0.00 | 0.00 | 78 | 1007.8 |
| 20260508112022 | 10 | 156 | 8.0 | 11.3 | 0.00 | 0.00 | 0.00 | 78 | 1007.8 |
| 20260508111541 | 10 | 161 | 8.0 | 11.3 | 0.00 | 0.00 | 0.00 | 78 | 1007.9 |
| 20260508111024 | 10 | 164 | 6.4 | 9.7 | 0.00 | 0.00 | 0.00 | 78 | 1007.9 |
| 20260508110521 | 10 | 164 | 6.4 | 9.7 | 0.00 | 0.00 | 0.00 | 78 | 1007.9 |
| 20260508110038 | 10 | 165 | 6.4 | 8.0 | 0.00 | 0.00 | 0.00 | 78 | 1007.9 |
| 20260508105521 | 10 | 175 | 4.8 | 9.7 | 0.00 | 0.00 | 0.00 | 78 | 1008.0 |
| 20260508105024 | 10 | 174 | 4.8 | 9.7 | 0.00 | 0.00 | 0.00 | 78 | 1008.0 |
| 20260508104538 | 10 | 180 | 6.4 | 11.3 | 0.00 | 0.00 | 0.00 | 78 | 1007.8 |
| 20260508104022 | 10 | 186 | 4.8 | 11.3 | 0.00 | 0.00 | 0.00 | 78 | 1007.7 |
| 20260508103522 | 10 | 190 | 6.4 | 12.9 | 0.00 | 0.00 | 0.00 | 78 | 1007.7 |
| 20260508103045 | 10 | 209 | 8.0 | 14.5 | 0.00 | 0.00 | 0.00 | 77 | 1007.8 |
| 20260508102523 | 10 | 210 | 6.4 | 14.5 | 0.00 | 0.00 | 0.00 | 77 | 1007.7 |
| 20260508102024 | 10 | 234 | 3.2 | 11.3 | 0.00 | 0.00 | 0.00 | 77 | 1007.8 |
| 20260508101536 | 10 | 178 | 6.4 | 11.3 | 0.00 | 0.00 | 0.00 | 76 | 1007.6 |
| 20260508101022 | 10 | 195 | 8.0 | 11.3 | 0.00 | 0.00 | 0.00 | 75 | 1007.5 |
| 20260508100523 | 10 | 175 | 6.4 | 9.7 | 0.00 | 0.00 | 0.00 | 75 | 1007.6 |
| 20260508100057 | 10 | 194 | 6.4 | 12.9 | 0.00 | 0.00 | 0.00 | 75 | 1007.6 |
| 20260508095527 | 10 | 178 | 6.4 | 12.9 | 0.00 | 0.00 | 0.00 | 74 | 1007.6 |
| 20260508095023 | 10 | 184 | 8.0 | 12.9 | 0.00 | 0.00 | 0.00 | 73 | 1007.6 |
| 20260508094542 | 10 | 191 | 8.0 | 12.9 | 0.00 | 0.00 | 0.00 | 72 | 1007.6 |
| 20260508094019 | 10 | 185 | 8.0 | 11.3 | 0.00 | 0.00 | 0.00 | 72 | 1007.6 |
| 20260508093523 | 10 | 165 | 6.4 | 9.7 | 0.00 | 0.00 | 0.00 | 72 | 1007.7 |
| 20260508093039 | 11 | 179 | 6.4 | 9.7 | 0.00 | 0.00 | 0.00 | 71 | 1007.8 |
| 20260508092520 | 11 | 171 | 4.8 | 11.3 | 0.00 | 0.00 | 0.00 | 71 | 1007.8 |
| 20260508092020 | 11 | 180 | 6.4 | 12.9 | 0.00 | 0.00 | 0.00 | 71 | 1007.6 |
| 20260508091552 | 11 | 190 | 6.4 | 12.9 | 0.00 | 0.00 | 0.00 | 70 | 1007.7 |
| 20260508091022 | 11 | 172 | 8.0 | 12.9 | 0.00 | 0.00 | 0.00 | 70 | 1007.6 |
| 20260508090521 | 11 | 177 | 8.0 | 14.5 | 0.00 | 0.00 | 0.00 | 70 | 1007.6 |
| 20260508090043 | 11 | 200 | 8.0 | 14.5 | 0.00 | 0.00 | 0.00 | 69 | 1007.6 |
| 20260508085520 | 11 | 182 | 6.4 | 12.9 | 0.00 | 0.00 | 0.00 | 69 | 1007.7 |
| 20260508085023 | 11 | 164 | 8.0 | 12.9 | 0.00 | 0.00 | 0.00 | 69 | 1007.7 |
| 20260508084539 | 11 | 215 | 8.0 | 11.3 | 0.00 | 0.00 | 0.00 | 69 | 1007.7 |
| 20260508084024 | 11 | 206 | 6.4 | 12.9 | 0.00 | 0.00 | 0.00 | 69 | 1007.6 |
| 20260508083523 | 11 | 217 | 6.4 | 16.1 | 0.00 | 0.00 | 0.00 | 69 | 1007.6 |
| 20260508083040 | 11 | 212 | 8.0 | 16.1 | 0.00 | 0.00 | 0.00 | 68 | 1007.7 |
| 20260508082521 | 11 | 217 | 8.0 | 14.5 | 0.00 | 0.00 | 0.00 | 68 | 1007.7 |
| 20260508082020 | 11 | 165 | 8.0 | 14.5 | 0.00 | 0.00 | 0.00 | 68 | 1007.7 |
| 20260508081553 | 11 | 202 | 8.0 | 12.9 | 0.00 | 0.00 | 0.00 | 67 | 1007.7 |
| 20260508081024 | 11 | 191 | 8.0 | 12.9 | 0.00 | 0.00 | 0.00 | 66 | 1007.6 |
| 20260508080522 | 12 | 181 | 6.4 | 11.3 | 0.00 | 0.00 | 0.00 | 66 | 1007.7 |
| 20260508080040 | 12 | 201 | 6.4 | 11.3 | 0.00 | 0.00 | 0.00 | 66 | 1007.7 |
| 20260508075521 | 12 | 203 | 4.8 | 12.9 | 0.00 | 0.00 | 0.00 | 66 | 1007.7 |
| 20260508075020 | 12 | 173 | 6.4 | 12.9 | 0.00 | 0.00 | 0.00 | 65 | 1007.9 |
| 20260508074538 | 12 | 191 | 6.4 | 12.9 | 0.00 | 0.00 | 0.00 | 65 | 1007.9 |
| 20260508074022 | 12 | 205 | 8.0 | 12.9 | 0.00 | 0.00 | 0.00 | 65 | 1007.9 |
| 20260508073523 | 12 | 241 | 8.0 | 12.9 | 0.00 | 0.00 | 0.00 | 65 | 1008.1 |
| 20260508073044 | 12 | 202 | 6.4 | 11.3 | 0.00 | 0.00 | 0.00 | 65 | 1008.0 |
| 20260508072520 | 12 | 192 | 6.4 | 12.9 | 0.00 | 0.00 | 0.00 | 65 | 1008.0 |
| 20260508072026 | 12 | 194 | 6.4 | 14.5 | 0.00 | 0.00 | 0.00 | 64 | 1008.0 |
| 20260508071539 | 12 | 198 | 6.4 | 14.5 | 0.00 | 0.00 | 0.00 | 64 | 1008.0 |
| 20260508071020 | 12 | 178 | 6.4 | 12.9 | 0.00 | 0.00 | 0.00 | 64 | 1008.0 |
| 20260508070523 | 12 | 180 | 6.4 | 14.5 | 0.00 | 0.00 | 0.00 | 64 | 1007.9 |
| 20260508070040 | 12 | 195 | 6.4 | 14.5 | 0.00 | 0.00 | 0.00 | 64 | 1008.0 |
| 20260508065520 | 12 | 171 | 8.0 | 17.7 | 0.00 | 0.00 | 0.00 | 64 | 1008.1 |
| 20260508065021 | 12 | 211 | 9.7 | 17.7 | 0.00 | 0.00 | 0.00 | 64 | 1008.0 |
| 20260508064540 | 12 | 188 | 9.7 | 17.7 | 0.00 | 0.00 | 0.00 | 64 | 1008.1 |
| 20260508064023 | 12 | 183 | 9.7 | 19.3 | 0.00 | 0.00 | 0.00 | 64 | 1008.0 |
| 20260508063523 | 12 | 184 | 11.3 | 19.3 | 0.00 | 0.00 | 0.00 | 65 | 1008.0 |
| 20260508063039 | 12 | 186 | 11.3 | 17.7 | 0.00 | 0.00 | 0.00 | 65 | 1008.0 |
| 20260508062522 | 12 | 196 | 9.7 | 17.7 | 0.00 | 0.00 | 0.00 | 64 | 1008.0 |
| 20260508062022 | 12 | 186 | 9.7 | 16.1 | 0.00 | 0.00 | 0.00 | 64 | 1008.0 |
| 20260508061538 | 12 | 163 | 9.7 | 19.3 | 0.00 | 0.00 | 0.00 | 64 | 1008.1 |
| 20260508061022 | 12 | 180 | 9.7 | 19.3 | 0.00 | 0.00 | 0.00 | 64 | 1008.1 |
| 20260508060524 | 12 | 192 | 8.0 | 16.1 | 0.00 | 0.00 | 0.00 | 63 | 1008.1 |
| 20260508060053 | 12 | 198 | 9.7 | 16.1 | 0.00 | 0.00 | 0.00 | 62 | 1008.1 |
| 20260508055522 | 12 | 196 | 9.7 | 16.1 | 0.00 | 0.00 | 0.00 | 62 | 1008.1 |
| 20260508055022 | 13 | 197 | 9.7 | 16.1 | 0.00 | 0.00 | 0.00 | 61 | 1008.1 |
| 20260508054610 | 13 | 166 | 9.7 | 16.1 | 0.00 | 0.00 | 0.00 | 61 | 1008.2 |
| 20260508054024 | 13 | 188 | 8.0 | 16.1 | 0.00 | 0.00 | 0.00 | 60 | 1008.3 |
| 20260508053522 | 13 | 171 | 9.7 | 16.1 | 0.00 | 0.00 | 0.00 | 60 | 1008.3 |
| 20260508053050 | 13 | 202 | 8.0 | 19.3 | 0.00 | 0.00 | 0.00 | 60 | 1008.3 |
| 20260508052522 | 13 | 188 | 11.3 | 19.3 | 0.00 | 0.00 | 0.00 | 60 | 1008.2 |
| 20260508052021 | 13 | 161 | 11.3 | 22.5 | 0.00 | 0.00 | 0.00 | 59 | 1008.4 |
| 20260508051541 | 13 | 185 | 12.9 | 22.5 | 0.00 | 0.00 | 0.00 | 59 | 1008.4 |
| 20260508051023 | 13 | 178 | 12.9 | 20.9 | 0.00 | 0.00 | 0.00 | 59 | 1008.3 |
| 20260508050523 | 13 | 200 | 12.9 | 20.9 | 0.00 | 0.00 | 0.00 | 58 | 1008.4 |
| 20260508050039 | 13 | 165 | 11.3 | 19.3 | 0.00 | 0.00 | 0.00 | 58 | 1008.3 |
| 20260508045522 | 13 | 190 | 11.3 | 19.3 | 0.00 | 0.00 | 0.00 | 58 | 1008.5 |
| 20260508045023 | 13 | 177 | 11.3 | 19.3 | 0.00 | 0.00 | 0.00 | 57 | 1008.5 |
| 20260508044537 | 14 | 200 | 11.3 | 22.5 | 0.00 | 0.00 | 0.00 | 57 | 1008.4 |
| 20260508044024 | 14 | 197 | 11.3 | 22.5 | 0.00 | 0.00 | 0.00 | 57 | 1008.6 |
| 20260508043522 | 14 | 172 | 11.3 | 25.7 | 0.00 | 0.00 | 0.00 | 57 | 1008.6 |
| 20260508043038 | 14 | 175 | 12.9 | 25.7 | 0.00 | 0.00 | 0.00 | 56 | 1008.6 |
| 20260508042522 | 14 | 167 | 12.9 | 22.5 | 0.00 | 0.00 | 0.00 | 56 | 1008.7 |
| 20260508042022 | 14 | 192 | 11.3 | 19.3 | 0.00 | 0.00 | 0.00 | 56 | 1008.7 |
| 20260508041545 | 15 | 161 | 11.3 | 20.9 | 0.00 | 0.00 | 0.00 | 55 | 1008.7 |
| 20260508041022 | 15 | 179 | 12.9 | 22.5 | 0.00 | 0.00 | 0.00 | 55 | 1008.7 |
| 20260508040522 | 15 | 186 | 11.3 | 24.1 | 0.00 | 0.00 | 0.00 | 54 | 1008.9 |
| 20260508040036 | 15 | 188 | 11.3 | 24.1 | 0.00 | 0.00 | 0.00 | 54 | 1008.9 |
| 20260508035522 | 15 | 206 | 12.9 | 22.5 | 0.00 | 0.00 | 0.00 | 54 | 1008.8 |
| 20260508035022 | 15 | 198 | 12.9 | 20.9 | 0.00 | 0.00 | 0.00 | 53 | 1009.0 |
| 20260508034547 | 15 | 178 | 11.3 | 19.3 | 0.00 | 0.00 | 0.00 | 52 | 1008.9 |
| 20260508034022 | 15 | 167 | 9.7 | 17.7 | 0.00 | 0.00 | 0.00 | 52 | 1009.0 |
| 20260508033522 | 16 | 186 | 11.3 | 22.5 | 0.00 | 0.00 | 0.00 | 51 | 1009.0 |
| 20260508033039 | 16 | 196 | 12.9 | 24.1 | 0.00 | 0.00 | 0.00 | 51 | 1008.9 |
| 20260508032523 | 16 | 179 | 12.9 | 27.4 | 0.00 | 0.00 | 0.00 | 51 | 1008.9 |
| 20260508032023 | 16 | 145 | 16.1 | 27.4 | 0.00 | 0.00 | 0.00 | 50 | 1009.0 |
| 20260508031537 | 16 | 162 | 14.5 | 24.1 | 0.00 | 0.00 | 0.00 | 50 | 1008.9 |
| 20260508031022 | 16 | 158 | 14.5 | 25.7 | 0.00 | 0.00 | 0.00 | 49 | 1008.9 |
| 20260508030522 | 16 | 176 | 14.5 | 25.7 | 0.00 | 0.00 | 0.00 | 48 | 1008.9 |
| 20260508030040 | 16 | 169 | 14.5 | 24.1 | 0.00 | 0.00 | 0.00 | 48 | 1009.0 |
| 20260508025523 | 17 | 200 | 12.9 | 24.1 | 0.00 | 0.00 | 0.00 | 47 | 1008.9 |
| 20260508025022 | 17 | 169 | 11.3 | 20.9 | 0.00 | 0.00 | 0.00 | 47 | 1009.0 |
| 20260508024544 | 17 | 179 | 12.9 | 22.5 | 0.00 | 0.00 | 0.00 | 46 | 1008.9 |
| 20260508024023 | 17 | 171 | 12.9 | 22.5 | 0.00 | 0.00 | 0.00 | 46 | 1008.8 |
| 20260508023523 | 17 | 209 | 12.9 | 25.7 | 0.00 | 0.00 | 0.00 | 45 | 1008.8 |
| 20260508023037 | 17 | 177 | 14.5 | 27.4 | 0.00 | 0.00 | 0.00 | 44 | 1008.7 |
| 20260508022526 | 17 | 190 | 14.5 | 27.4 | 0.00 | 0.00 | 0.00 | 44 | 1008.7 |
| 20260508022025 | 17 | 143 | 14.5 | 25.7 | 0.00 | 0.00 | 0.00 | 43 | 1008.6 |
| 20260508021537 | 17 | 187 | 16.1 | 30.6 | 0.00 | 0.00 | 0.00 | 43 | 1008.7 |
| 20260508021026 | 17 | 197 | 16.1 | 30.6 | 0.00 | 0.00 | 0.00 | 43 | 1008.5 |
| 20260508020522 | 17 | 158 | 16.1 | 30.6 | 0.00 | 0.00 | 0.00 | 42 | 1008.5 |
| 20260508020038 | 17 | 175 | 14.5 | 30.6 | 0.00 | 0.00 | 0.00 | 42 | 1008.4 |
| 20260508015522 | 17 | 180 | 11.3 | 19.3 | 0.00 | 0.00 | 0.00 | 42 | 1008.3 |
| 20260508015022 | 17 | 175 | 11.3 | 19.3 | 0.00 | 0.00 | 0.00 | 41 | 1008.2 |
| 20260508014539 | 18 | 161 | 11.3 | 20.9 | 0.00 | 0.00 | 0.00 | 41 | 1008.1 |
| 20260508014023 | 18 | 207 | 11.3 | 20.9 | 0.00 | 0.00 | 0.00 | 40 | 1008.1 |
| 20260508013522 | 18 | 169 | 11.3 | 19.3 | 0.00 | 0.00 | 0.00 | 40 | 1008.0 |
| 20260508013037 | 18 | 157 | 9.7 | 17.7 | 0.00 | 0.00 | 0.00 | 39 | 1008.0 |
| 20260508012525 | 19 | 162 | 9.7 | 17.7 | 0.00 | 0.00 | 0.00 | 38 | 1007.9 |
| 20260508012023 | 20 | 144 | 9.7 | 17.7 | 0.00 | 0.00 | 0.00 | 38 | 1008.0 |
| 20260508011532 | 20 | 189 | 11.3 | 19.3 | 0.00 | 0.00 | 0.00 | 37 | 1007.9 |
| 20260508011022 | 20 | 188 | 11.3 | 19.3 | 0.00 | 0.00 | 0.00 | 36 | 1007.9 |
| 20260508010523 | 21 | 180 | 9.7 | 20.9 | 0.00 | 0.00 | 0.00 | 36 | 1007.9 |
| 20260508010048 | 21 | 180 | 12.9 | 20.9 | 0.00 | 0.00 | 0.00 | 35 | 1007.8 |
| 20260508005521 | 21 | 184 | 11.3 | 19.3 | 0.00 | 0.00 | 0.00 | 34 | 1007.8 |
| 20260508005023 | 22 | 183 | 11.3 | 19.3 | 0.00 | 0.00 | 0.00 | 34 | 1007.8 |
| 20260508004537 | 22 | 190 | 9.7 | 19.3 | 0.00 | 0.00 | 0.00 | 33 | 1007.8 |
| 20260508004021 | 22 | 173 | 11.3 | 19.3 | 0.00 | 0.00 | 0.00 | 32 | 1007.8 |
| 20260508003520 | 23 | 182 | 9.7 | 20.9 | 0.00 | 0.00 | 0.00 | 32 | 1007.8 |
| 20260508003039 | 23 | 196 | 12.9 | 25.7 | 0.00 | 0.00 | 0.00 | 31 | 1007.9 |
| 20260508002522 | 23 | 205 | 14.5 | 27.4 | 0.00 | 0.00 | 0.00 | 31 | 1007.9 |
| 20260508002021 | 23 | 188 | 11.3 | 27.4 | 0.00 | 0.00 | 0.00 | 31 | 1007.8 |
| 20260508001537 | 23 | 188 | 12.9 | 29.0 | 0.00 | 0.00 | 0.00 | 31 | 1007.9 |
| 20260508001023 | 23 | 169 | 16.1 | 29.0 | 0.00 | 0.00 | 0.00 | 30 | 1007.9 |
| 20260508000529 | 23 | 197 | 11.3 | 24.1 | 0.00 | 0.00 | 0.00 | 29 | 1007.9 |
| 20260508000038 | 23 | 268 | 9.7 | 20.9 | 0.00 | 0.00 | 0.00 | 29 | 1007.9 |
| 20260507235523 | 23 | 178 | 9.7 | 24.1 | 0.00 | 0.00 | 0.00 | 30 | 1008.1 |
| 20260507235020 | 23 | 216 | 12.9 | 27.4 | 0.00 | 0.00 | 0.00 | 29 | 1008.0 |
| 20260507234542 | 24 | 206 | 16.1 | 30.6 | 0.00 | 0.00 | 0.00 | 29 | 1008.0 |
| 20260507234021 | 24 | 202 | 11.3 | 30.6 | 0.00 | 0.00 | 0.00 | 29 | 1007.9 |
| 20260507233520 | 24 | 201 | 16.1 | 30.6 | 0.00 | 0.00 | 0.00 | 28 | 1008.0 |
| 20260507233038 | 24 | 213 | 9.7 | 24.1 | 0.00 | 0.00 | 0.00 | 30 | 1008.0 |
| 20260507232520 | 24 | 240 | 11.3 | 24.1 | 0.00 | 0.00 | 0.00 | 29 | 1008.1 |
| 20260507232020 | 24 | 237 | 12.9 | 27.4 | 0.00 | 0.00 | 0.00 | 29 | 1008.2 |
| 20260507231543 | 24 | 217 | 9.7 | 27.4 | 0.00 | 0.00 | 0.00 | 29 | 1008.2 |
| 20260507231020 | 24 | 194 | 11.3 | 27.4 | 0.00 | 0.00 | 0.00 | 29 | 1008.2 |
| 20260507230522 | 24 | 242 | 11.3 | 24.1 | 0.00 | 0.00 | 0.00 | 30 | 1008.2 |
| 20260507230041 | 25 | 192 | 12.9 | 24.1 | 0.00 | 0.00 | 0.00 | 30 | 1008.4 |
| 20260507225524 | 24 | 225 | 9.7 | 29.0 | 0.00 | 0.00 | 0.00 | 32 | 1008.5 |
| 20260507225023 | 24 | 225 | 12.9 | 29.0 | 0.00 | 0.00 | 0.00 | 29 | 1008.5 |
| 20260507224536 | 24 | 211 | 12.9 | 29.0 | 0.00 | 0.00 | 0.00 | 30 | 1008.5 |
| 20260507224021 | 24 | 219 | 11.3 | 29.0 | 0.00 | 0.00 | 0.00 | 31 | 1008.7 |
| 20260507223523 | 24 | 244 | 12.9 | 27.4 | 0.00 | 0.00 | 0.00 | 31 | 1008.6 |
| 20260507223039 | 24 | 189 | 11.3 | 27.4 | 0.00 | 0.00 | 0.00 | 30 | 1008.7 |
| 20260507222521 | 24 | 241 | 16.1 | 37.0 | 0.00 | 0.00 | 0.00 | 29 | 1008.7 |
| 20260507222020 | 24 | 220 | 16.1 | 37.0 | 0.00 | 0.00 | 0.00 | 30 | 1008.7 |
| 20260507221538 | 24 | 255 | 17.7 | 37.0 | 0.00 | 0.00 | 0.00 | 29 | 1008.9 |
| 20260507221020 | 24 | 238 | 14.5 | 25.7 | 0.00 | 0.00 | 0.00 | 30 | 1009.0 |
| 20260507220520 | 24 | 236 | 12.9 | 22.5 | 0.00 | 0.00 | 0.00 | 33 | 1008.9 |
| 20260507220039 | 23 | 228 | 11.3 | 24.1 | 0.00 | 0.00 | 0.00 | 31 | 1009.0 |
| 20260507215521 | 24 | 254 | 14.5 | 24.1 | 0.00 | 0.00 | 0.00 | 30 | 1009.1 |
| 20260507215021 | 24 | 213 | 12.9 | 24.1 | 0.00 | 0.00 | 0.00 | 30 | 1009.3 |
| 20260507214545 | 24 | 209 | 14.5 | 24.1 | 0.00 | 0.00 | 0.00 | 30 | 1009.1 |